{"data":{"norad_id":25481,"intl_designator":"1998-053G","name":"ORBCOMM FM27","alt_names":[],"object_type":"PAYLOAD","status":"ACTIVE","operator":null,"country":"ORB","launch_date":"1998-09-23","launch_site_code":"ERAS","launch_vehicle":null,"mission":null,"orbit_class":"UNKNOWN","rcs_meters":0.659,"size_class":null,"mass_kg":null,"dimensions":null,"purposes":["comms"],"wikipedia_slug":null,"has_3d_model":false,"image_url":null,"decayed_at":null,"tle_current":{"epoch":"2026-09-19T22:31:58.648800Z","epoch_age_seconds":59624,"freshness":"FRESH","line1":"1 25481U 98053G   26262.93887325  .00000550  00000+0  22111-3 0  9997","line2":"2 25481  45.0044 245.2586 0002771 306.3755  53.6838 14.39282762463883","mean_motion":14.39282762,"eccentricity":0.0002771,"inclination_deg":45.0044,"raan_deg":245.2586,"arg_perigee_deg":306.3755,"mean_anomaly_deg":53.6838,"bstar":0.00022111,"rev_number":46388,"period_min":100.04983301537,"perigee_km":758.89097397134,"apogee_km":762.84741120327,"semimajor_km":7139.0061925873,"source":"CELESTRAK","updated_at":"2026-09-20T09:00:44.909380Z"}}}